Regional Weather Roundup
Issued by NWS

Home | Current Version | Previous Version | Text Only | Print | Product List | Glossary Off
Versions: 1 2 3 4 5 6 7 8 9 10 11 12 13 14 15 16 17 18 19 20 21 22 23 24 25 26 27 28 29 30 31 32 33 34 35 36 37 38 39 40 41 42 43 44 45 46 47 48 49 50

000
ASUS43 KOAX 251202
RWRNE

WEATHER ROUNDUP FOR NEBRASKA
NATIONAL WEATHER SERVICE OMAHA NE
600 AM CST SUN FEB 25 2018

NOTES: SATELLITE DATA IS BEING USED TO AUGMENT CLOUD COVER ABOVE
       12000 FEET.
       "FAIR" INDICATES FEW OR NO CLOUDS BELOW 12,000 FEET WITH NO
       SIGNIFICANT WEATHER AND/OR OBSTRUCTIONS TO VISIBILITY.


NEZ001>004-019>022-054>056-251300-
NEBRASKA PANHANDLE

CITY           SKY/WX    TMP DP  RH WIND       PRES   REMARKS
SCOTTSBLUFF    MOCLDY    26  12  55 W17       29.79F WCI  13
6HR MIN TEMP:  22; 6HR MAX TEMP:  29;

ALLIANCE       CLOUDY    15   8  73 W8        29.78R WCI   4
6HR MIN TEMP:   9; 6HR MAX TEMP:  21;

CHADRON        CLEAR     -1  -4  87 W5        29.80R WCI -11
6HR MIN TEMP:  -2; 6HR MAX TEMP:  16;

GORDON         FAIR      15   6  66 W7        29.76S WCI   5
6HR MIN TEMP:  14; 6HR MAX TEMP:  19;

KIMBALL        PTCLDY    21   7  56 W13       29.80S WCI   8
SIDNEY         CLEAR     22   8  55 W14       29.83R WCI   9
6HR MIN TEMP:  18; 6HR MAX TEMP:  28;

$$

NEZ057>060-069>072-079>082-251300-
SOUTHWEST NEBRASKA

CITY           SKY/WX    TMP DP  RH WIND       PRES   REMARKS
NORTH PLATTE   MOCLDY     8   3  80 NW3       29.88R
6HR MIN TEMP:   6; 6HR MAX TEMP:  14;

IMPERIAL       CLOUDY    29  12  49 W12       29.87R WCI  19
6HR MIN TEMP:  23; 6HR MAX TEMP:  29;

LEXINGTON      PTCLDY    16  11  82 W3        29.89R
MCCOOK         CLOUDY    24  17  74 W5        29.91R WCI  18
6HR MIN TEMP:  22; 6HR MAX TEMP:  25;

OGALLALA       CLEAR     23  13  66 W8        29.85R WCI  13
$$

NEZ005>010-023>029-035>040-094-251300-
NORTH CENTRAL NEBRASKA

CITY           SKY/WX    TMP DP  RH WIND       PRES   REMARKS
VALENTINE      MOCLDY    14   5  67 W7        29.79R WCI   4
6HR MIN TEMP:  10; 6HR MAX TEMP:  19;

AINSWORTH      MOCLDY    18  11  71 W10       29.79R WCI   7
BROKEN BOW     CLEAR     15   6  67 W9        29.84R WCI   3
6HR MIN TEMP:  12; 6HR MAX TEMP:  25;

O`NEILL        PTCLDY    19  10  68 W10       29.80S WCI   7
ORD            CLEAR     15   7  70 W7        29.85R WCI   5
6HR MIN TEMP:  13; 6HR MAX TEMP:  22;

THEDFORD       MOCLDY    22  14  70 W7        29.81R WCI  14
$$

NEZ041-046>049-061>064-073>077-083>087-251300-
SOUTH CENTRAL NEBRASKA

CITY           SKY/WX    TMP DP  RH WIND       PRES   REMARKS
GRAND ISLAND   CLEAR     21  13  71 SW12      29.90R WCI   9
6HR MIN TEMP:  20; 6HR MAX TEMP:  24;

AURORA         CLEAR     19  13  79 SW10      29.90R WCI   7
HASTINGS       CLEAR     19  12  74 SW8       29.91R WCI   9
6HR MIN TEMP:  18; 6HR MAX TEMP:  22;

HEBRON         CLEAR     21  16  81 W6        29.94S WCI  14
HOLDREGE       PTCLDY    23  15  74 W7        29.91R WCI  14
KEARNEY        CLEAR     20  13  74 SW10      29.91R WCI   9
YORK           CLEAR     18  16  93 W10       29.90S WCI   6
$$

NEZ011>018-030>034-042>045-251300-
NORTHEAST NEBRASKA

CITY           SKY/WX    TMP DP  RH WIND       PRES   REMARKS
NORFOLK        CLEAR     21  11  65 W10       29.81R WCI  10
6HR MIN TEMP:  19; 6HR MAX TEMP:  23;

ALBION         CLEAR     19  10  69 NW7       29.85R WCI   9
BLAIR          CLEAR     22  15  75 SW8       29.87R WCI  12
COLUMBUS       CLEAR     17  12  80 SW10      29.89R WCI   5
FREMONT        CLEAR     22  14  71 SW9       29.88R WCI  12
TEKAMAH        CLEAR     16  10  77 S7        29.87R WCI   6
6HR MIN TEMP:  13; 6HR MAX TEMP:  21;

WAYNE          CLEAR     22  11  62 W15       29.80F WCI   9
$$

NEZ050>053-065>068-078-088>093-251300-
SOUTHEAST NEBRASKA

CITY           SKY/WX    TMP DP  RH WIND       PRES   REMARKS
LINCOLN        CLEAR     22  16  78 SW7       29.93R WCI  13
6HR MIN TEMP:  19; 6HR MAX TEMP:  27;

OMAHA EPPLEY   CLEAR     22  15  75 S9        29.90R WCI  12
6HR MIN TEMP:  21; 6HR MAX TEMP:  27;

BEATRICE       CLEAR     24  19  78 W6        29.94F WCI  17
FALLS CITY     CLEAR     26  19  74 SW9       29.96R WCI  17
6HR MIN TEMP:  24; 6HR MAX TEMP:  31;

NEBRASKA CITY  CLEAR     24  21  89 SW14      29.94R WCI  11
PLATTSMOUTH    CLEAR     22  17  81 SW12      29.91R WCI  11
$$

NEZ044-045-051>053-067-251300-
OMAHA AREA

CITY           SKY/WX    TMP DP  RH WIND       PRES   REMARKS
OMAHA EPPLEY   CLEAR     22  15  75 S9        29.90R WCI  12
6HR MIN TEMP:  21; 6HR MAX TEMP:  27;

BLAIR          CLEAR     22  15  75 SW8       29.87R WCI  12
FREMONT        CLEAR     22  14  71 SW9       29.88R WCI  12
MILLARD        CLEAR     22  16  78 CALM      29.91R
OFFUTT AFB     CLEAR     22  16  76 SW6       29.90R WCI  15
PLATTSMOUTH    CLEAR     22  17  81 SW12      29.91R WCI  11
WAHOO          FAIR      22  14  71 SW12      29.90R WCI  10
$$




USA.gov is the U.S. government's official web portal to all federal, state and local government web resources and services.